Starlink 35035

operational
NORAD ID: 65407 Int'l Des: 2025-192 Owner: SPXS Country: US Constellation: starlink
LEOCIRCULAR

Starlink 35035について

説明を読み込み中...

リアルタイム位置

3D地球を読み込み中...

次回通過

高度履歴

Altitude vs Time

uPlot chart will show altitude changes over time

軌道要素

1 65407U 25192D 25340.64537294 .00071133 00000-0 17680-2 0 9994
2 65407 53.1621 310.5825 0000813 273.7493 86.3419 15.39684916 15057
Epoch: Dec 6, 2025 • Age: 29 hours

現在のステータス

高度 463.1 km
速度 7.64 km/s
衛星直下点 -49.65°S, 144.96°W
打ち上げ日 Aug 31, 2025
運用期間 0.2 years
タイプ internet

技術仕様

分類 Payload
質量 575.00 kg
乾燥質量 530.00 kg
総質量 575.00 kg
長さ 0.30 m
直径 4.10 m
スパン 29.00 m
形状 Box + pan
製造者 SPXS
バスタイプ Starlink V2MO
フェーズステータス In Orbit
所有者/国 SPXS/US

大規模コンステレーション

Loading constellations...